User: anonymous   Login
Location: Melizzano
(41.1500°N, 14.5000°E)
Time: 16:07:56
(UTC+00:00)
Language:

Cosmos 1782 - Orbit

View from above orbital plane
View from above orbital plane
View from above satellite
View from above satellite

Ground track
Ground track

The orbit data is extracted from the following two-line orbital elements,

1 16986U 86074A   21210.76180028  .00001248  00000-0  80085-4 0  9993
2 16986  82.5067  97.4088 0009038 246.9577 113.0698 15.07608725876130
Epoch (UTC): 29 July 2021 18:16:59
Eccentricity: 0.0009038
inclination: 82.5067°
perigee height: 537 km
apogee height: 550 km
right ascension of ascending node: 97.4088°
argument of perigee: 246.9577°
revolutions per day: 15.07608725
mean anomaly at epoch: 113.0698°
orbit number at epoch: 87613

The dashed part of the orbit path shows where the satellite is in the earth's shadow,  

DLR